Temp
-2 -2 -4 -4 -4 -4 -4 -4 -4 -4 -4 -4 -4 -4 -4 -4 -4 -4 -4 -4 -4 -5 -4 -4 -4 -4 -4 -5 -5 -5 -6 -8 -8 -8 -6 -6 -7 -5 -7 -3 -4 -3 -5 -5 -4 -4 -3 -1 2 3 -2 -1 0 1
-2 -3 -4 -4 -4 -4 -4 -4 -4 -4 -4 -4 -4 -4 -4 -4 -4 -4 -4 -4 -4 -5 -4 -4 -4 -4 -4 -4 -5 -6 -5 -6 -5 -7 -6 -8 -6 -7 -8 -5 -2 -2 -3 -3 -2 -2 -2 -3 -2 -2 -2 -2 -1 -1
-2 -4 -4 -4 -4 -4 -4 -4 -4 -4 -4 -4 -4 -4 -4 -4 -4 -4 -4 -5 -5 -5 -5 -5 -3 -3 -3 -4 -4 -6 -5 -5 -5 -4 -8 -6 -7 -5 -5 -5 -5 -4 -4 -3 -3 -3 -4 -3 -3 -3 -2 -2 -1 -1
-2 -5 -5 -5 -5 -4 -4 -5 -5 -5 -5 -5 -4 -4 -4 -4 -5 -5 -5 -5 -5 -5 -7 -5 -4 -4 -4 -4 -5 -5 -5 -6 -6 -5 -5 -6 -6 -4 -5 -4 -4 -6 -6 -6 -6 -5 -5 -3 -4 -4 -3 -2 -2 -1
-2 -4 -5 -4 -5 -5 -5 -5 -5 -5 -5 -5 -5 -5 -5 -5 -5 -5 -5 -5 -5 -5 -7 -5 -4 -3 -3 -4 -5 -5 -5 -6 -6 -5 -5 -5 -5 -5 -5 -4 -6 -6 -6 -7 -6 -6 -6 -5 -4 -4 -4 -4 -3 -3
-4 -5 -4 -4 -5 -5 -4 -3 -3 -3 -4 -5 -5 -5 -4 -5 -4 -5 -5 -5 -6 -6 -6 -10 -5 -4 -4 -4 -5 -5 -5 -5 -5 -5 -5 -5 -5 -5 -5 -5 -6 -7 -7 -7 -7 -7 -7 -5 -5 -5 -4 -4 -4 -4
-4 -4 -5 -5 -5 -3 -3 -3 -3 -3 -3 -3 -4 -4 -4 -5 -5 -5 -6 -6 -6 -6 -6 -10 -8 -4 -4 -4 -4 -5 -6 -6 -5 -5 -6 -6 -6 -6 -6 -7 -8 -7 -7 -7 -7 -6 -5 -6 -7 -6 -5 -5 -5 -5
-5 -5 -5 -5 -4 -3 -3 -3 -2 -3 -3 -3 -3 -4 -4 -4 -5 -5 -5 -6 -6 -7 -7 -12 -9 -6 -5 -5 -5 -5 -5 -5 -6 -6 -6 -7 -7 -7 -8 -8 -8 -8 -7 -7 -7 -7 -7 -7 -7 -7 -7 -6 -7 -7
-4 -5 -5 -5 -3 -3 -3 -3 -2 -3 -3 -3 -4 -4 -4 -4 -5 -6 -6 -6 -6 -6 -6 -8 -9 -9 -5 -6 -6 -5 -5 -6 -6 -7 -7 -6 -8 -9 -9 -9 -8 -7 -8 -8 -8 -8 -8 -8 -7 -7 -7 -7 -7 -7
-6 -5 -5 -4 -3 -3 -3 -3 -3 -3 -3 -3 -4 -4 -4 -5 -5 -6 -6 -5 -6 -6 -6 -9 -7 -8 -7 -6 -6 -6 -4 -6 -6 -7 -7 -8 -9 -9 -10 -9 -9 -8 -7 -8 -8 -8 -8 -8 -8 -8 -8 -8 -7 -7
-5 -5 -4 -3 -3 -3 -3 -3 -3 -3 -4 -4 -4 -5 -5 -5 -5 -5 -6 -10 -9 -11 -8 -8 -8 -9 -7 -6 -6 -6 -8 -7 -7 -7 -7 -8 -9 -10 -10 -10 -9 -9 -9 -9 -8 -8 -8 -8 -8 -8 -8 -7 -7 -7
-5 -5 -5 -3 -3 -3 -3 -3 -3 -4 -5 -6 -6 -6 -6 -6 -7 -13 -21 -14 -13 -12 -10 -10 -10 -10 -8 -7 -7 -7 -7 -7 -7 -7 -9 -10 -10 -11 -10 -10 -9 -9 -9 -8 -7 -8 -8 -8 -7 -7 -6 -6 -5 -6
-5 -5 -4 -3 -4 -3 -3 -3 -4 -4 -5 -6 -6 -6 -9 -11 -15 -17 -16 -15 -14 -11 -10 -11 -11 -9 -7 -7 -7 -8 -8 -8 -6 -9 -9 -10 -11 -11 -11 -10 -9 -8 -8 -8 -8 -7 -7 -7 -6 -6 -6 -6 -6 -5
-5 -5 -3 -4 -3 -3 -3 -4 -4 -5 -5 -6 -8 -15 -17 -19 -17 -15 -14 -14 -11 -11 -12 -12 -11 -8 -8 -8 -8 -8 -8 -8 -9 -9 -10 -11 -11 -11 -11 -10 -9 -9 -9 -8 -8 -8 -7 -7 -7 -7 -6 -6 -5 -5
-5 -4 -4 -4 -4 -4 -4 -4 -5 -5 -7 -9 -9 -17 -18 -12 -12 -12 -12 -13 -12 -12 -12 -11 -10 -9 -9 -10 -9 -8 -9 -10 -8 -9 -10 -12 -12 -11 -11 -10 -10 -9 -9 -9 -8 -8 -8 -8 -7 -7 -7 -7 -7 -7
-5 -4 -4 -4 -4 -4 -4 -4 -5 -6 -8 -9 -11 -15 -12 -14 -13 -13 -13 -13 -12 -12 -12 -11 -12 -12 -10 -10 -10 -11 -10 -10 -10 -10 -11 -11 -12 -11 -11 -11 -10 -10 -9 -9 -9 -9 -9 -8 -8 -9 -8 -8 -8 -8
-6 -6 -5 -4 -4 -4 -4 -5 -6 -7 -8 -9 -11 -12 -12 -13 -13 -13 -13 -13 -13 -13 -10 -12 -14 -13 -11 -11 -12 -11 -11 -11 -12 -12 -12 -12 -12 -11 -11 -11 -11 -10 -10 -10 -9 -9 -9 -10 -10 -9 -8 -9 -9 -9
-6 -5 -4 -4 -4 -4 -5 -6 -6 -7 -9 -10 -10 -11 -12 -13 -13 -14 -13 -13 -13 -12 -11 -15 -12 -14 -13 -12 -11 -12 -13 -12 -12 -13 -12 -12 -11 -11 -11 -11 -11 -11 -11 -11 -10 -10 -10 -10 -9 -10 -10 -10 -10 -10
-6 -5 -5 -5 -4 -5 -5 -6 -6 -8 -9 -10 -10 -11 -12 -13 -13 -14 -13 -13 -13 -12 -12 -13 -17 -16 -13 -13 -12 -12 -12 -12 -13 -13 -12 -12 -12 -11 -11 -11 -11 -11 -11 -11 -11 -11 -11 -11 -11 -11 -11 -11 -10 -11
-5 -5 -5 -5 -4 -5 -6 -7 -7 -7 -8 -9 -10 -10 -11 -13 -13 -13 -13 -13 -13 -14 -15 -16 -15 -15 -15 -14 -12 -12 -12 -12 -12 -12 -13 -12 -12 -11 -11 -11 -11 -12 -11 -12 -12 -12 -12 -12 -12 -12 -11 -11 -11 -11
-5 -5 -5 -5 -5 -5 -6 -7 -8 -8 -9 -9 -9 -10 -10 -11 -12 -13 -13 -13 -15 -15 -15 -16 -15 -15 -14 -13 -12 -12 -12 -12 -11 -11 -12 -13 -12 -12 -12 -12 -12 -11 -11 -11 -11 -12 -11 -12 -12 -12 -12 -12 -12 -12
-6 -5 -5 -5 -5 -6 -7 -8 -9 -9 -9 -9 -10 -10 -11 -12 -12 -13 -13 -15 -16 -16 -16 -15 -15 -14 -13 -12 -12 -12 -12 -11 -11 -12 -12 -12 -12 -12 -12 -12 -11 -11 -11 -11 -11 -12 -12 -12 -12 -13 -12 -12 -12 -12
-6 -6 -6 -6 -6 -7 -10 -9 -9 -9 -11 -11 -10 -11 -12 -12 -12 -12 -14 -15 -15 -15 -15 -14 -14 -13 -13 -13 -13 -12 -12 -12 -11 -12 -12 -12 -12 -12 -13 -12 -12 -12 -12 -12 -12 -13 -13 -13 -13 -13 -13 -13 -13 -13
-7 -6 -6 -7 -8 -11 -10 -10 -11 -11 -12 -16 -20 -16 -15 -13 -12 -12 -15 -14 -14 -14 -14 -14 -14 -14 -14 -13 -12 -13 -12 -12 -12 -12 -12 -13 -12 -13 -13 -13 -13 -13 -13 -14 -13 -13 -13 -13 -13 -13 -13 -13 -13 -13
-7 -10 -10 -11 -11 -11 -19 -18 -16 -15 -19 -24 -20 -18 -14 -13 -14 -13 -13 -14 -14 -14 -13 -13 -13 -13 -12 -12 -13 -12 -12 -12 -12 -12 -13 -13 -13 -13 -13 -14 -14 -13 -13 -13 -12 -13 -13 -13 -14 -14 -13 -13 -13 -13
-17 -13 -12 -14 -13 -15 -18 -17 -20 -20 -22 -19 -19 -15 -14 -15 -13 -13 -13 -13 -13 -13 -13 -13 -12 -12 -12 -12 -12 -12 -12 -12 -12 -13 -13 -13 -13 -13 -14 -13 -13 -13 -13 -13 -13 -13 -13 -13 -13 -13 -13 -13 -13 -12
-16 -15 -13 -13 -13 -13 -15 -15 -15 -17 -21 -18 -20 -19 -20 -15 -14 -14 -14 -13 -13 -12 -12 -12 -12 -12 -12 -12 -12 -12 -12 -12 -12 -12 -12 -13 -13 -13 -13 -13 -13 -13 -13 -14 -14 -13 -13 -13 -13 -13 -13 -13 -13 -12
-13 -13 -16 -13 -13 -14 -17 -18 -21 -20 -19 -16 -16 -19 -17 -16 -15 -14 -14 -13 -13 -12 -12 -12 -12 -12 -12 -12 -12 -11 -11 -11 -12 -12 -12 -12 -13 -13 -14 -14 -14 -14 -15 -15 -14 -14 -13 -13 -13 -13 -13 -13 -13 -12
-13 -13 -13 -14 -14 -15 -16 -16 -16 -16 -16 -16 -17 -19 -15 -15 -15 -14 -14 -13 -13 -12 -12 -12 -12 -12 -12 -12 -12 -12 -12 -12 -12 -12 -12 -13 -13 -13 -13 -14 -14 -14 -14 -14 -14 -14 -13 -13 -13 -13 -13 -13 -13 -13
-14 -14 -14 -15 -16 -18 -16 -16 -16 -16 -16 -16 -16 -15 -15 -15 -15 -14 -13 -13 -13 -12 -12 -12 -12 -12 -12 -12 -12 -12 -12 -12 -12 -12 -12 -12 -13 -13 -13 -13 -14 -14 -14 -14 -13 -13 -13 -13 -13 -13 -13 -13 -13 -13
-14 -14 -14 -15 -15 -16 -16 -16 -16 -16 -16 -16 -16 -15 -15 -14 -14 -14 -13 -13 -13 -13 -12 -12 -12 -12 -12 -12 -12 -12 -12 -12 -12 -12 -13 -13 -13 -13 -14 -14 -14 -14 -14 -14 -13 -13 -13 -13 -13 -12 -12 -12 -13 -12
-14 -14 -15 -17 -15 -16 -16 -16 -16 -16 -15 -15 -15 -15 -14 -14 -13 -13 -12 -13 -13 -13 -13 -12 -12 -12 -13 -13 -13 -13 -12 -12 -12 -12 -12 -13 -13 -14 -14 -14 -14 -14 -14 -14 -14 -13 -13 -13 -13 -13 -13 -13 -13 -13
-15 -15 -15 -15 -16 -16 -16 -16 -16 -15 -15 -15 -15 -15 -14 -14 -13 -12 -12 -12 -13 -13 -13 -13 -13 -13 -13 -13 -13 -13 -12 -12 -12 -13 -13 -13 -14 -15 -16 -15 -14 -14 -14 -14 -13 -13 -13 -13 -13 -13 -13 -13 -13 -13
Height
1541 1538 1535 1532 1530 1527 1522 1518 1512 1507 1502 1499 1494 1490 1485 1480 1476 1473 1467 1465 1463 1458 1449 1449 1449 1448 1447 1447 1446 1443 1444 1440 1442 1444 1438 1435 1435 1426 1429 1415 1412 1405 1417 1420 1417 1417 1404 1383 1367 1370 1380 1370 1365 1355
1538 1534 1532 1530 1528 1523 1517 1513 1508 1502 1497 1493 1489 1484 1479 1474 1468 1465 1458 1456 1454 1451 1444 1442 1440 1441 1440 1439 1441 1439 1437 1435 1434 1438 1436 1438 1433 1431 1428 1419 1404 1400 1407 1410 1402 1391 1384 1386 1385 1380 1375 1370 1363 1356
1535 1533 1530 1527 1523 1518 1514 1508 1504 1499 1494 1488 1483 1478 1472 1466 1460 1456 1450 1447 1446 1442 1438 1435 1434 1434 1435 1434 1434 1434 1428 1427 1426 1428 1430 1431 1433 1425 1418 1413 1410 1406 1406 1403 1401 1386 1385 1384 1383 1377 1373 1370 1363 1357
1531 1528 1526 1523 1519 1514 1509 1504 1499 1494 1489 1483 1477 1471 1465 1459 1453 1448 1443 1441 1441 1440 1439 1434 1433 1431 1430 1429 1427 1423 1418 1419 1420 1423 1425 1425 1425 1419 1415 1410 1410 1414 1410 1410 1405 1394 1388 1381 1381 1379 1375 1370 1364 1360
1528 1524 1522 1519 1514 1509 1504 1499 1494 1488 1483 1477 1471 1464 1458 1453 1448 1443 1440 1439 1439 1442 1440 1433 1429 1429 1427 1426 1421 1417 1410 1408 1413 1416 1417 1418 1417 1418 1411 1410 1413 1416 1415 1414 1406 1400 1402 1392 1386 1382 1377 1372 1368 1366
1525 1522 1519 1516 1510 1504 1499 1495 1489 1483 1477 1472 1466 1458 1454 1451 1446 1443 1442 1443 1442 1441 1441 1438 1431 1427 1427 1423 1418 1415 1408 1407 1410 1413 1414 1415 1414 1414 1411 1412 1416 1416 1413 1410 1404 1401 1398 1395 1391 1387 1382 1378 1376 1374
1521 1518 1515 1511 1506 1501 1495 1490 1485 1478 1472 1466 1460 1455 1453 1451 1448 1445 1448 1447 1444 1443 1442 1439 1433 1429 1426 1422 1419 1416 1413 1412 1412 1414 1417 1417 1416 1414 1418 1421 1419 1412 1408 1404 1401 1399 1397 1394 1394 1391 1386 1384 1382 1381
1519 1515 1510 1507 1502 1497 1492 1486 1480 1474 1469 1462 1456 1453 1452 1451 1448 1448 1448 1447 1445 1444 1443 1445 1439 1432 1428 1425 1422 1421 1418 1417 1420 1422 1424 1424 1423 1424 1427 1427 1419 1412 1407 1403 1399 1397 1398 1398 1396 1394 1393 1390 1387 1389
1517 1512 1506 1503 1499 1493 1489 1483 1476 1471 1466 1458 1453 1451 1452 1451 1449 1449 1448 1446 1445 1447 1445 1446 1449 1442 1432 1429 1425 1422 1421 1424 1428 1430 1430 1432 1436 1438 1438 1428 1419 1414 1411 1408 1405 1402 1402 1401 1402 1401 1400 1398 1397 1398
1515 1509 1503 1498 1495 1489 1484 1479 1472 1467 1463 1456 1452 1451 1451 1451 1449 1449 1447 1448 1447 1448 1448 1450 1449 1444 1440 1432 1428 1425 1424 1428 1432 1438 1437 1440 1445 1445 1438 1431 1422 1418 1414 1412 1409 1410 1409 1410 1410 1409 1407 1407 1407 1408
1511 1507 1500 1494 1491 1486 1480 1476 1470 1464 1459 1456 1452 1451 1451 1450 1450 1449 1449 1451 1453 1455 1454 1453 1451 1448 1440 1437 1433 1431 1434 1434 1441 1446 1444 1450 1452 1449 1442 1435 1429 1425 1421 1418 1415 1416 1417 1418 1418 1416 1414 1418 1420 1422
1508 1504 1499 1492 1488 1483 1478 1473 1467 1462 1458 1456 1454 1451 1451 1451 1452 1454 1468 1462 1462 1466 1460 1457 1454 1450 1443 1440 1438 1437 1439 1441 1449 1450 1455 1461 1463 1456 1448 1442 1437 1433 1429 1426 1425 1427 1428 1427 1428 1426 1426 1430 1433 1435
1503 1501 1496 1490 1486 1481 1476 1471 1466 1460 1457 1455 1454 1453 1457 1463 1471 1481 1485 1477 1472 1466 1462 1461 1457 1450 1445 1443 1441 1440 1445 1454 1453 1461 1467 1473 1469 1462 1457 1451 1447 1443 1440 1437 1437 1437 1437 1437 1436 1435 1437 1440 1442 1444
1499 1497 1491 1488 1483 1479 1474 1469 1464 1459 1457 1457 1459 1469 1475 1485 1484 1480 1478 1476 1472 1467 1464 1461 1456 1451 1448 1447 1445 1446 1452 1453 1465 1471 1477 1478 1474 1468 1462 1457 1453 1452 1450 1449 1448 1448 1447 1446 1447 1447 1448 1450 1451 1451
1496 1492 1489 1485 1480 1477 1472 1468 1464 1460 1460 1464 1468 1485 1483 1480 1478 1477 1475 1473 1469 1466 1463 1460 1456 1454 1452 1452 1452 1453 1459 1470 1472 1477 1481 1481 1478 1474 1470 1467 1464 1462 1461 1460 1459 1457 1457 1456 1455 1455 1457 1458 1459 1460
1493 1489 1487 1484 1480 1475 1471 1468 1465 1464 1468 1472 1477 1483 1481 1478 1476 1475 1473 1469 1467 1464 1461 1460 1458 1459 1459 1459 1461 1467 1468 1474 1479 1481 1483 1482 1480 1478 1476 1474 1472 1470 1468 1467 1466 1466 1465 1463 1463 1464 1466 1466 1465 1465
1490 1487 1485 1482 1479 1474 1471 1468 1468 1470 1474 1479 1481 1481 1480 1478 1477 1474 1470 1467 1466 1464 1460 1460 1466 1469 1465 1467 1472 1473 1474 1478 1481 1483 1483 1483 1482 1481 1480 1478 1477 1477 1475 1474 1473 1472 1471 1472 1473 1472 1470 1470 1470 1470
1488 1486 1482 1479 1477 1473 1472 1470 1472 1476 1479 1481 1482 1481 1478 1477 1475 1472 1469 1466 1465 1463 1462 1467 1467 1472 1476 1475 1476 1479 1479 1481 1483 1484 1485 1486 1486 1485 1484 1483 1482 1481 1480 1480 1479 1479 1478 1477 1476 1474 1474 1474 1475 1474
1483 1483 1482 1479 1475 1473 1472 1474 1475 1478 1481 1481 1480 1479 1478 1477 1474 1471 1468 1467 1466 1465 1465 1469 1477 1482 1480 1480 1480 1481 1483 1484 1486 1487 1487 1488 1488 1488 1488 1487 1487 1485 1485 1484 1483 1481 1480 1479 1478 1478 1477 1477 1477 1476
1481 1481 1480 1477 1475 1473 1474 1476 1477 1478 1480 1481 1479 1478 1479 1479 1476 1472 1469 1467 1467 1468 1474 1480 1484 1485 1484 1483 1484 1485 1485 1487 1487 1488 1490 1492 1492 1491 1491 1490 1489 1489 1488 1487 1486 1486 1485 1484 1482 1480 1480 1479 1479 1478
1479 1479 1477 1477 1475 1474 1475 1477 1478 1479 1479 1480 1479 1479 1481 1480 1478 1474 1472 1471 1472 1481 1486 1488 1488 1487 1486 1486 1487 1488 1489 1490 1491 1491 1492 1493 1494 1494 1494 1493 1492 1491 1490 1488 1487 1486 1484 1483 1482 1481 1481 1480 1479 1478
1478 1477 1476 1475 1475 1475 1477 1479 1480 1480 1480 1480 1480 1481 1481 1481 1481 1480 1480 1480 1487 1492 1491 1491 1490 1490 1490 1490 1491 1491 1492 1493 1493 1493 1494 1495 1496 1496 1495 1494 1493 1492 1490 1489 1489 1487 1486 1485 1483 1482 1481 1480 1479 1478
1476 1476 1476 1475 1476 1477 1482 1480 1480 1480 1480 1481 1481 1483 1484 1485 1485 1485 1488 1493 1496 1496 1495 1494 1494 1494 1494 1494 1495 1495 1496 1496 1496 1496 1496 1497 1497 1497 1497 1497 1495 1494 1493 1492 1490 1489 1487 1485 1484 1482 1481 1480 1480 1479
1477 1476 1475 1476 1478 1481 1481 1481 1482 1482 1483 1484 1486 1489 1488 1488 1487 1489 1496 1498 1499 1498 1498 1498 1499 1499 1499 1499 1498 1498 1499 1499 1499 1499 1499 1500 1500 1499 1499 1498 1497 1496 1494 1493 1491 1490 1488 1486 1485 1483 1482 1480 1479 1478
1479 1482 1482 1481 1482 1482 1484 1484 1485 1484 1492 1492 1492 1491 1489 1489 1491 1494 1496 1498 1499 1499 1499 1500 1500 1501 1501 1501 1500 1500 1501 1501 1501 1501 1501 1501 1501 1501 1501 1500 1498 1497 1495 1494 1492 1490 1488 1486 1484 1483 1481 1479 1478 1476
1484 1486 1486 1486 1486 1486 1488 1490 1491 1492 1492 1492 1492 1490 1490 1490 1493 1495 1495 1496 1498 1499 1500 1501 1502 1502 1502 1502 1502 1502 1503 1503 1503 1503 1503 1503 1502 1502 1501 1500 1499 1497 1495 1493 1490 1489 1487 1485 1484 1481 1479 1477 1475 1474
1489 1490 1489 1489 1489 1488 1489 1490 1490 1491 1494 1493 1492 1491 1492 1496 1495 1495 1495 1496 1498 1499 1500 1501 1502 1503 1503 1504 1504 1504 1504 1503 1504 1504 1503 1503 1502 1501 1500 1499 1497 1496 1494 1492 1490 1488 1486 1484 1482 1479 1477 1476 1474 1472
1491 1491 1491 1491 1490 1490 1490 1491 1492 1493 1492 1492 1493 1494 1495 1494 1493 1493 1494 1496 1497 1499 1500 1502 1502 1503 1504 1504 1504 1505 1504 1504 1504 1503 1503 1503 1502 1500 1499 1498 1496 1495 1493 1491 1489 1487 1485 1482 1480 1478 1476 1474 1472 1471
1493 1492 1492 1491 1491 1491 1491 1492 1492 1493 1493 1492 1492 1492 1491 1491 1491 1491 1493 1495 1497 1499 1500 1501 1502 1503 1503 1504 1504 1504 1504 1504 1504 1503 1503 1502 1501 1500 1498 1497 1496 1495 1493 1491 1489 1485 1483 1481 1479 1477 1475 1473 1471 1469
1494 1493 1493 1492 1492 1493 1493 1493 1493 1492 1492 1492 1492 1491 1491 1490 1491 1492 1493 1494 1496 1497 1499 1500 1501 1502 1503 1503 1504 1504 1504 1503 1503 1503 1502 1501 1500 1499 1498 1496 1495 1493 1491 1488 1485 1483 1481 1479 1477 1475 1474 1472 1470 1468
1494 1493 1493 1493 1493 1494 1493 1493 1493 1492 1492 1491 1491 1491 1491 1490 1491 1492 1493 1494 1495 1496 1497 1498 1499 1500 1501 1502 1502 1502 1502 1502 1502 1501 1500 1499 1498 1497 1496 1494 1492 1490 1487 1485 1482 1480 1478 1476 1474 1473 1471 1470 1468 1466
1494 1494 1494 1494 1494 1494 1494 1493 1492 1492 1491 1491 1491 1490 1491 1491 1491 1491 1491 1492 1494 1495 1496 1497 1498 1499 1500 1501 1501 1501 1501 1500 1500 1499 1498 1497 1496 1495 1493 1491 1490 1488 1485 1483 1480 1478 1476 1473 1472 1470 1469 1467 1466 1464
1494 1494 1494 1494 1494 1494 1494 1493 1492 1491 1491 1490 1490 1490 1490 1490 1489 1489 1489 1491 1493 1494 1495 1496 1497 1497 1498 1498 1499 1499 1498 1498 1497 1496 1495 1494 1494 1492 1491 1489 1488 1486 1484 1481 1479 1476 1474 1472 1469 1468 1466 1465 1463 1462
Wind_Speed
12 15 18 20 22 24 26 26 27 29 29 30 30 29 28 28 29 27 29 25 17 11 26 26 16 16 14 7 4 5 5 2 2 1 2 3 2 2 2 10 7 2 5 3 3 3 7 17 11 5 6 19 18 26
14 17 18 21 23 25 26 27 28 28 28 28 29 29 30 31 31 28 30 25 21 19 25 30 30 27 24 26 23 9 7 4 7 1 2 0 2 3 2 3 3 1 2 2 5 5 7 14 10 18 20 19 19 24
16 18 20 21 24 26 27 27 28 28 28 29 30 31 32 32 30 26 25 20 18 19 22 18 10 10 8 15 16 12 11 16 11 17 5 3 4 2 3 3 3 4 5 2 6 5 13 21 21 25 20 16 14 11
16 18 20 22 25 27 27 28 28 28 29 30 31 32 31 32 27 21 20 15 11 7 1 5 6 23 5 7 13 19 30 24 13 17 7 3 2 6 3 4 5 2 6 3 6 7 17 3 29 24 16 8 7 5
18 19 21 23 26 26 27 28 29 29 30 31 32 31 30 20 20 14 9 6 5 2 2 10 20 3 7 15 21 15 17 29 10 6 3 3 3 3 4 4 2 4 3 2 4 12 13 18 20 14 9 10 12 15
18 20 22 24 26 26 27 30 32 33 31 31 30 28 18 16 12 6 4 14 13 6 4 3 6 6 14 19 14 14 12 5 6 3 1 2 3 3 2 2 3 15 11 14 8 21 23 8 10 8 12 17 21 25
19 21 23 24 26 26 29 32 34 33 30 31 28 18 10 12 11 10 4 6 10 9 3 5 7 5 16 14 12 11 17 11 4 4 4 5 6 6 2 3 21 25 12 15 9 9 4 10 7 14 21 24 29 31
20 21 22 25 26 26 31 34 33 31 30 29 22 10 4 7 7 4 3 10 9 4 3 2 4 8 15 7 6 10 7 9 15 6 4 5 6 6 3 22 28 18 8 11 7 5 10 12 17 20 23 28 34 35
20 22 22 25 26 26 32 33 32 31 30 25 15 5 2 4 5 5 6 7 5 4 2 3 3 3 12 6 5 7 3 3 5 3 4 5 4 5 12 23 19 15 11 13 22 23 23 23 21 25 31 33 35 37
21 23 23 25 26 26 32 33 31 31 29 17 6 1 2 8 8 4 2 4 4 4 5 2 9 3 8 4 3 6 4 2 2 4 4 4 2 22 30 23 24 22 16 19 23 22 25 26 28 32 35 37 41 45
21 23 23 26 24 27 31 30 30 30 25 13 6 2 5 6 3 2 3 6 8 5 9 8 8 5 7 3 3 7 1 2 3 4 3 4 6 20 29 29 30 29 32 34 34 32 30 28 30 35 41 40 40 40
21 23 26 24 22 28 29 27 29 27 18 9 6 3 6 7 5 6 1 5 4 1 10 8 10 10 8 5 3 5 2 3 4 3 3 4 6 29 28 30 33 34 36 39 40 39 37 39 39 41 42 40 38 36
19 23 25 21 25 26 26 24 26 22 13 4 3 4 7 9 8 5 5 4 4 9 6 16 7 5 5 5 2 2 5 2 2 4 3 3 18 24 24 27 33 34 36 38 37 36 37 37 38 38 36 32 30 29
19 22 21 20 22 25 22 23 24 17 5 4 7 7 4 4 1 3 2 3 9 10 20 20 7 4 4 4 2 4 2 3 3 3 3 4 18 18 21 26 30 30 31 32 31 30 31 31 30 29 27 24 23 23
20 21 16 23 22 22 18 20 18 9 7 6 6 3 2 6 13 7 10 13 14 14 11 9 7 3 2 2 3 2 4 4 3 2 2 8 11 15 19 21 23 24 24 25 24 25 25 24 24 24 22 20 19 17
21 21 22 22 21 19 13 12 10 9 5 5 5 4 10 5 4 10 17 15 7 13 10 3 2 3 3 2 4 3 3 3 2 3 6 7 10 14 17 19 20 20 21 21 21 21 20 21 20 19 15 15 15 14
19 22 23 20 19 15 11 9 6 6 5 4 3 6 9 6 8 13 17 10 13 7 2 2 4 0 3 3 3 3 2 3 12 12 10 11 12 13 15 16 17 18 19 19 18 18 18 15 12 11 13 14 12 11
20 20 18 17 16 8 6 7 5 4 4 3 2 9 9 7 10 11 11 9 5 4 3 2 2 5 3 2 2 2 9 18 16 13 13 12 12 13 14 15 16 16 16 16 16 15 13 13 14 15 12 12 9 9
18 17 16 16 12 4 2 4 4 4 2 2 2 4 10 9 8 7 4 3 7 6 5 5 5 2 2 4 7 12 13 13 16 15 15 12 11 12 13 13 13 14 14 14 13 15 15 14 14 12 10 8 8 7
13 10 15 9 7 1 3 3 3 3 2 2 6 6 5 10 13 15 12 7 8 6 8 4 3 4 3 11 12 13 15 16 18 18 15 13 12 12 13 13 14 13 12 12 12 11 10 9 10 10 9 8 6 6
8 13 8 5 1 4 4 3 3 3 2 2 5 4 2 7 19 23 19 12 10 6 5 8 8 7 10 12 13 13 12 10 7 10 15 14 12 12 12 12 11 11 12 13 13 14 13 14 13 10 8 7 6 4
10 11 4 1 2 3 4 4 2 2 2 2 3 4 4 4 7 13 10 13 7 8 6 7 10 12 14 14 14 13 13 13 14 14 13 11 11 10 12 12 11 13 13 13 13 14 14 12 11 10 8 6 5 4
9 4 0 1 2 2 2 3 1 3 3 4 2 3 4 4 6 5 6 6 5 9 9 11 13 14 15 15 15 14 13 12 13 14 13 11 10 10 10 12 13 12 11 11 12 13 14 13 11 10 9 7 4 3
4 1 2 3 5 2 2 2 3 2 3 5 3 2 2 4 5 5 3 3 3 6 8 9 10 11 12 12 13 13 13 12 11 11 11 10 9 9 9 11 12 13 13 12 11 11 11 12 11 10 9 7 6 5
2 6 4 5 6 2 5 5 6 4 2 2 2 3 2 3 2 2 2 4 4 6 7 8 7 8 8 9 9 9 9 8 8 8 9 9 9 9 7 8 10 12 12 10 11 11 11 10 10 10 10 9 8 8
5 7 5 5 4 3 0 2 2 1 1 2 1 2 2 2 2 2 3 9 8 8 8 8 8 8 8 8 7 7 6 5 5 6 6 6 6 6 7 7 8 11 14 15 16 15 13 11 11 12 11 10 10 9
4 2 4 5 2 2 3 3 2 2 2 1 2 2 2 2 2 2 8 10 10 9 7 6 5 5 4 4 4 5 5 4 4 4 4 5 5 7 8 10 11 13 13 15 17 15 15 14 14 13 12 11 11 11
4 5 2 4 3 3 3 2 1 1 2 1 0 1 4 5 3 6 7 11 10 9 7 6 4 3 2 3 3 3 3 3 3 3 4 4 6 8 9 11 13 13 14 14 17 15 14 14 14 13 13 13 11 10
3 6 3 3 2 3 3 1 1 1 0 1 1 1 1 2 4 6 10 11 9 8 8 7 5 4 3 3 3 2 2 2 3 3 4 5 7 8 10 11 12 12 13 12 13 13 13 13 14 14 13 13 12 12
4 6 2 2 2 1 1 1 0 0 1 2 1 2 1 2 6 8 9 9 9 9 8 8 7 6 5 3 2 2 2 2 3 4 5 6 8 8 9 11 11 11 12 14 13 12 11 10 10 10 10 10 10 9
4 3 1 2 1 1 3 2 1 1 2 2 1 2 2 2 5 7 8 9 8 8 8 8 8 7 7 5 3 2 2 2 4 6 7 8 9 9 10 11 12 13 15 15 15 15 14 12 11 10 10 10 10 11
2 2 1 1 0 3 2 2 2 2 1 1 1 2 2 2 3 7 9 10 9 8 7 5 5 5 6 5 4 3 4 5 6 8 8 7 8 8 9 13 14 14 14 15 15 15 15 14 13 11 9 10 10 10
0 1 1 0 0 1 2 3 2 2 2 2 2 3 3 2 3 6 7 13 12 10 8 6 5 5 5 4 2 4 5 7 8 7 7 7 7 7 11 13 12 12 13 14 15 15 15 14 13 12 10 10 10 10
Wind_Direction
343 344 347 347 342 339 338 339 338 332 330 327 330 325 322 317 318 317 309 309 299 271 283 281 271 266 257 242 251 276 309 282 51 157 247 255 247 314 275 287 278 213 161 186 202 225 260 10 341 357 302 313 316 316
343 345 345 343 336 334 341 338 332 331 331 328 326 324 320 318 317 313 304 305 300 266 265 281 286 287 273 274 268 251 232 178 223 170 218 228 321 314 255 281 257 102 150 298 224 241 3 351 301 308 324 308 308 308
342 343 343 337 337 340 339 337 334 333 330 328 329 325 323 319 319 316 309 306 300 255 270 275 309 316 290 293 278 242 251 231 219 232 185 219 234 210 269 255 337 8 21 305 342 2 334 331 354 344 341 327 327 318
341 342 336 338 338 339 337 335 334 333 330 331 330 327 326 320 318 315 311 304 287 247 251 299 305 317 315 302 302 266 259 249 242 215 210 192 203 219 254 265 305 17 334 335 272 311 324 225 342 341 339 4 50 83
341 342 339 337 339 336 336 336 336 334 332 334 332 330 325 329 329 336 12 12 280 338 261 298 313 354 325 332 330 343 295 251 205 177 181 208 212 233 244 261 57 350 334 297 274 319 309 297 327 340 13 51 80 107
344 341 339 337 337 338 340 340 339 337 339 335 334 332 339 344 359 28 40 37 34 32 317 330 313 325 345 347 343 2 21 151 154 124 87 271 279 283 10 19 169 341 308 296 275 302 279 312 28 49 86 90 96 101
348 343 337 337 338 341 343 340 339 339 342 340 336 339 347 356 5 52 36 339 345 335 325 322 326 338 349 353 15 4 36 42 67 63 37 355 355 23 51 356 328 321 322 334 283 301 313 33 56 88 98 97 97 95
343 336 339 338 340 342 342 341 341 342 344 341 337 335 336 5 21 50 41 356 333 344 359 40 297 335 358 334 330 26 36 37 26 38 31 8 13 3 33 331 323 337 345 30 68 114 97 91 97 88 98 106 98 92
342 341 340 340 340 342 342 341 342 342 342 341 337 338 324 5 5 351 356 330 15 32 33 66 327 303 338 322 314 333 27 63 50 32 16 41 10 30 323 328 342 25 40 70 87 89 91 84 85 90 97 97 94 96
339 343 341 341 341 341 341 342 342 342 342 346 350 12 36 343 335 330 319 346 24 29 34 68 346 287 316 310 306 320 34 43 51 33 34 28 62 359 355 3 37 54 77 84 77 72 83 79 84 86 87 93 96 100
344 342 342 342 342 341 341 341 342 342 348 353 348 43 352 350 351 12 44 38 350 24 6 345 347 323 325 328 321 15 61 11 49 7 38 23 5 348 357 31 48 66 77 81 86 85 87 88 88 92 97 100 104 108
344 345 343 344 342 341 340 342 344 345 346 339 343 15 15 24 29 67 338 346 39 347 340 347 322 307 302 330 330 2 81 39 50 347 47 16 345 348 13 39 58 68 78 85 93 92 90 91 96 97 99 98 99 103
344 346 342 345 342 341 340 342 347 345 347 3 14 53 16 3 34 55 348 327 342 346 340 331 324 296 313 353 327 18 68 75 66 40 48 18 336 2 25 46 63 72 77 81 85 87 88 88 90 89 90 92 95 97
340 344 343 342 344 345 343 344 348 352 2 37 34 24 67 358 9 250 220 263 285 289 309 314 292 304 349 341 347 70 24 71 68 49 38 353 356 20 42 56 62 60 63 68 70 73 76 79 81 84 84 86 90 89
341 345 344 346 347 347 346 347 353 9 44 58 41 34 358 318 312 293 310 312 304 301 314 311 302 315 336 27 18 64 45 62 55 58 52 12 35 52 58 63 67 69 69 70 71 72 74 75 76 78 76 77 80 84
345 344 345 346 347 350 353 355 19 51 56 54 66 25 328 335 320 326 321 316 336 313 316 247 324 38 26 27 45 27 78 75 106 80 96 71 69 69 70 70 69 70 70 70 70 71 72 70 69 72 80 80 78 77
340 338 336 344 346 352 4 20 39 54 53 50 55 349 339 293 290 312 315 309 320 311 314 66 55 34 321 50 49 17 50 93 115 110 100 90 81 75 75 75 73 72 72 71 70 67 65 65 70 78 74 68 67 71
331 329 337 343 345 357 33 48 73 72 77 71 89 7 358 339 327 336 324 332 331 342 26 93 64 44 35 48 52 81 95 117 116 110 102 95 90 86 81 76 73 72 71 69 66 67 66 62 61 62 65 65 62 70
325 331 335 339 349 3 63 56 62 102 89 20 289 36 25 4 17 1 346 69 72 84 91 55 57 45 29 12 83 111 121 121 122 109 101 95 90 85 81 78 76 72 67 63 58 51 47 44 44 46 52 55 54 56
332 330 335 341 358 64 84 65 72 101 143 18 35 32 33 34 37 49 62 81 74 60 49 46 27 14 27 65 109 124 124 128 123 114 103 97 90 89 82 74 69 64 61 57 53 55 49 43 37 36 40 41 47 64
345 342 335 353 18 68 86 86 73 69 92 73 32 49 53 37 34 36 33 51 60 41 62 43 58 81 98 110 118 120 125 133 133 131 123 112 98 85 79 71 64 59 52 47 42 38 30 25 19 22 25 24 28 40
333 341 332 10 71 85 80 54 76 48 44 67 51 33 38 20 18 21 24 45 55 33 45 72 93 102 107 106 106 110 112 118 118 113 109 103 99 86 71 60 51 43 38 35 30 27 24 18 17 15 10 11 18 20
322 315 316 50 100 64 100 35 54 25 74 10 38 55 28 26 20 24 65 46 56 51 81 91 98 104 107 105 107 107 106 106 104 99 96 93 88 79 66 54 46 38 33 28 22 17 13 13 9 12 9 5 3 355
9 28 37 47 35 81 79 60 46 44 52 30 38 30 10 358 14 66 75 59 66 93 101 106 110 111 111 114 109 104 102 96 94 95 90 82 77 71 59 46 37 30 29 24 16 7 4 4 6 1 357 356 348 334
6 15 22 26 30 39 33 14 3 49 52 337 60 355 355 1 69 69 104 150 148 130 123 121 124 127 122 108 102 101 99 98 94 87 85 75 60 49 49 41 31 26 26 25 23 16 9 4 360 354 346 341 331 323
70 20 34 14 10 60 180 52 26 198 124 23 273 335 6 86 82 151 175 165 162 154 142 134 127 119 109 99 92 93 100 111 97 87 84 76 61 49 41 29 25 21 17 13 11 7 2 357 356 356 353 341 333 328
59 353 42 35 36 73 87 79 90 87 83 148 290 16 57 87 210 179 164 166 169 165 161 155 146 133 118 114 105 90 92 96 99 86 61 40 23 16 14 11 10 6 3 5 357 351 352 352 350 352 355 354 339 335
61 32 35 356 33 38 119 70 78 156 237 151 254 30 159 188 200 165 174 175 173 173 173 177 170 157 144 140 133 110 96 101 90 60 30 11 2 358 356 353 352 349 347 344 342 342 341 341 345 347 348 349 347 338
50 2 351 13 47 53 52 75 112 137 207 239 183 235 253 224 185 173 170 174 179 182 189 190 192 189 178 169 165 147 106 79 57 28 9 355 348 346 342 336 333 329 328 331 335 335 336 336 339 340 342 343 345 341
16 1 9 22 54 324 35 39 39 296 261 260 268 281 259 195 179 172 174 182 188 193 197 201 205 204 202 204 228 244 261 287 312 332 336 337 336 333 325 323 329 335 338 338 341 343 338 331 328 330 326 326 332 337
348 354 1 39 75 82 112 76 22 324 284 274 239 235 220 174 184 189 189 189 191 195 200 206 212 217 222 229 234 255 282 283 301 315 325 328 328 327 327 330 340 347 346 343 344 344 342 338 331 328 333 336 338 341
8 40 24 27 219 187 297 323 309 289 270 260 239 213 200 208 231 200 203 195 190 189 187 189 194 200 205 211 236 271 294 306 310 314 320 324 324 325 334 340 347 347 347 345 343 343 342 341 338 331 328 333 336 338
44 44 32 296 195 233 286 305 283 293 257 250 235 226 227 234 233 211 201 196 193 194 190 188 186 183 187 201 243 296 304 303 306 312 321 329 337 340 319 329 340 344 346 348 348 345 346 345 343 339 331 325 327 331